Berlin, NH

11:29 AM EDT on August 22, 2017 (GMT -0400)
Berlin Municipal

Weather History for KBML - July, 2012

Change the Weather History Date:

Wednesday, July 11, 2012

  Actual Average Record
Temperature  
Mean Temperature 63 °F -  
Max Temperature 82 °F 74 °F 88 °F (2011)
Min Temperature 44 °F 48 °F 37 °F (2002)
Degree Days  
Heating Degree Days 2    
Growing Degree Days 13 (Base 50)    
Moisture  
Dew Point 47 °F    
Average Humidity 73    
Maximum Humidity 97    
Minimum Humidity 28    
Precipitation  
Precipitation 0.00 in - - ()
Sea Level Pressure  
Sea Level Pressure 30.17 in    
Wind  
Wind Speed 1 mph (WNW)    
Max Wind Speed 9 mph    
Max Gust Speed -    
Visibility 8 miles    
Events Fog    
Averages and records for this station are not official NWS values.
T = Trace of Precipitation, MM = Missing Value Source: NWS Daily Summary

Daily Weather History Graph

Daily Weather History Graph

Search for Another Location

Airport or City:

Trip Planner

Search our weather history database for the weather conditions in past years. The results will help you decide how hot, cold, wet, or windy it might be!

Date:

Astronomy

Jul. 11, 2012 Rise Set
Actual Time 5:10 AM EDT 8:29 PM EDT
Civil Twilight 4:34 AM EDT 9:05 PM EDT
Nautical Twilight 3:48 AM EDT 9:51 PM EDT
Astronomical Twilight 2:49 AM EDT 10:49 PM EDT
Moon No Moon Rise 1:54 PM EDT (7/11)
Length of Visible Light 16h 30m
Length of Day
15h 18m
Last Quarter, 44% of the Moon is Illuminated
Jul 11
Last Quarter
Jul 19
New
Jul 26
First Quarter
Aug 1
Full
Aug 9
Last Quarter

Hourly Weather History & Observations

Time (EDT) Temp. Dew Point Humidity Pressure Visibility Wind Dir Wind Speed Gust Speed Precip Events Conditions
12:52 AM 48.9 °F 46.9 °F 93% 30.12 in 10.0 mi Calm Calm - N/A   Clear
1:52 AM 48.0 °F 46.0 °F 93% 30.13 in 10.0 mi Calm Calm - N/A   Clear
2:52 AM 45.0 °F 43.0 °F 93% 30.14 in 10.0 mi Calm Calm - N/A   Clear
3:07 AM 44.6 °F 42.8 °F 93% 30.14 in 10.0 mi Calm Calm - N/A   Partly Cloudy
3:52 AM 45.0 °F 43.0 °F 93% 30.15 in 10.0 mi Calm Calm - N/A   Clear
3:59 AM 44.6 °F 42.8 °F 93% 30.15 in 10.0 mi Calm Calm - N/A   Partly Cloudy
4:13 AM 44.6 °F 42.8 °F 93% 30.15 in 9.0 mi Calm Calm - N/A   Mostly Cloudy
4:24 AM 44.6 °F 42.8 °F 93% 30.15 in 1.5 mi Calm Calm - N/A   Mostly Cloudy
4:34 AM 44.6 °F 42.8 °F 93% 30.16 in 4.0 mi Calm Calm - N/A   Overcast
4:52 AM 44.1 °F 42.1 °F 93% 30.17 in 10.0 mi Calm Calm - N/A   Mostly Cloudy
5:18 AM 44.6 °F 42.8 °F 93% 30.17 in 1.5 mi Calm Calm - N/A   Overcast
5:21 AM 44.6 °F 42.8 °F 93% 30.17 in 0.8 mi Calm Calm - N/A   Overcast
5:41 AM 44.6 °F 42.8 °F 93% 30.19 in 0.2 mi Calm Calm - N/A Fog Fog
5:52 AM 46.0 °F 45.0 °F 96% 30.19 in 0.2 mi Calm Calm - N/A Fog Fog
6:41 AM 48.2 °F 46.4 °F 93% 30.20 in 4.0 mi Calm Calm - N/A   Mostly Cloudy
6:52 AM 48.9 °F 48.0 °F 97% 30.20 in 10.0 mi Calm Calm - N/A   Scattered Clouds
7:52 AM 55.9 °F 51.1 °F 84% 30.21 in 10.0 mi Calm Calm - N/A   Clear
9:52 AM 72.0 °F 54.0 °F 53% 30.20 in 10.0 mi Calm Calm - N/A   Clear
10:52 AM 75.9 °F 54.0 °F 46% 30.19 in 10.0 mi Calm Calm - N/A   Clear
11:52 AM 77.0 °F 48.0 °F 36% 30.19 in 10.0 mi NW 5.8 mph - N/A   Clear
12:52 PM 79.0 °F 50.0 °F 36% 30.19 in 10.0 mi Variable 4.6 mph - N/A   Clear
1:52 PM 80.1 °F 46.0 °F 30% 30.18 in 10.0 mi NW 9.2 mph - N/A   Clear
2:52 PM 82.0 °F 48.9 °F 31% 30.17 in 10.0 mi Variable 4.6 mph - N/A   Partly Cloudy
3:52 PM 81.0 °F 46.0 °F 29% 30.17 in 10.0 mi West 8.1 mph - N/A   Clear
4:52 PM 82.0 °F 46.0 °F 28% 30.17 in 10.0 mi Variable 5.8 mph - N/A   Clear
5:52 PM 81.0 °F 46.9 °F 30% 30.16 in 10.0 mi Variable 3.5 mph - N/A   Partly Cloudy
6:52 PM 79.0 °F 50.0 °F 36% 30.16 in 10.0 mi Variable 3.5 mph - N/A   Clear
8:52 PM 62.1 °F 57.0 °F 84% 30.17 in 10.0 mi Calm Calm - N/A   Clear
9:52 PM 60.1 °F 55.0 °F 83% 30.19 in 10.0 mi Calm Calm - N/A   Clear
11:52 PM 52.0 °F 50.0 °F 93% 30.20 in 10.0 mi Calm Calm - N/A   Clear